Liberal, KS

2:47 PM CST on December 11, 2019 (GMT -0600)
Liberal Municipal

Weather History for KLBL - November, 2019

Change the Weather History Date:

Saturday, November 16, 2019

  Actual Average Record
Temperature  
Mean Temperature 50 °F -  
Max Temperature 66 °F 59 °F 86 °F (2016)
Min Temperature 34 °F 30 °F 7 °F (1955)
Degree Days  
Heating Degree Days 15    
Moisture  
Dew Point 29 °F    
Average Humidity 49    
Maximum Humidity 76    
Minimum Humidity 24    
Precipitation  
Precipitation 0.00 in - - ()
Sea Level Pressure  
Sea Level Pressure 29.97 in    
Wind  
Wind Speed 9 mph ()    
Max Wind Speed 24 mph    
Max Gust Speed -    
Visibility 9.9 miles    
Events      
Averages and records for this station are not official NWS values.
T = Trace of Precipitation, MM = Missing Value Source: Averaged Metar Reports

Daily Weather History Graph

Daily Weather History Graph

Search for Another Location

Airport or City:

Astronomy

Nov. 16, 2019 Rise Set
Actual Time 7:23 AM CST 5:33 PM CST
Civil Twilight 6:55 AM CST 6:01 PM CST
Nautical Twilight 6:24 AM CST 6:32 PM CST
Astronomical Twilight 5:53 AM CST 7:03 PM CST
Moon 9:10 PM CST (11/16) 11:16 AM CST (11/16)
Length of Visible Light 11h 05m
Length of Day
10h 10m
Waning Gibbous, 82% of the Moon is Illuminated
Nov 16
Waning Gibbous
Nov 19
Last Quarter
Nov 26
New
Dec 4
First Quarter
Dec 11
Full

Hourly Weather History & Observations

Time (CST) Temp. Windchill Dew Point Humidity Pressure Visibility Wind Dir Wind Speed Gust Speed Precip Events Conditions
12:56 AM 39.9 °F 33.4 °F 27.0 °F 60% 30.04 in 10.0 mi South 10.4 mph - N/A   Clear
1:56 AM 39.0 °F 32.8 °F 27.0 °F 62% 30.04 in 10.0 mi South 9.2 mph - N/A   Clear
2:56 AM 34.0 °F 26.6 °F 25.0 °F 70% 30.02 in 10.0 mi South 9.2 mph - N/A   Clear
3:56 AM 37.9 °F 29.6 °F 28.0 °F 68% 29.99 in 10.0 mi South 13.8 mph - N/A   Clear
4:56 AM 37.0 °F 28.9 °F 28.0 °F 70% 29.99 in 10.0 mi South 12.7 mph - N/A   Clear
5:56 AM 37.9 °F 33.5 °F 28.0 °F 68% 30.02 in 10.0 mi SW 5.8 mph - N/A   Clear
6:56 AM 36.0 °F 30.3 °F 28.9 °F 76% 30.02 in 10.0 mi SSW 6.9 mph - N/A   Clear
7:56 AM 37.0 °F 31.6 °F 28.9 °F 73% 30.02 in 10.0 mi South 6.9 mph - N/A   Clear
8:56 AM 45.0 °F 39.3 °F 32.0 °F 60% 30.01 in 10.0 mi SSW 11.5 mph - N/A   Clear
9:56 AM 52.0 °F - 32.0 °F 47% 30.00 in 10.0 mi SW 15.0 mph - N/A   Clear
10:56 AM 54.0 °F - 32.0 °F 43% 29.97 in 10.0 mi SSW 12.7 mph - N/A   Clear
11:56 AM 62.1 °F - 30.9 °F 31% 29.93 in 10.0 mi SSW 12.7 mph - N/A   Clear
12:56 PM 64.0 °F - 30.9 °F 29% 29.91 in 10.0 mi SSW 11.5 mph - N/A   Clear
1:56 PM 66.9 °F - 30.9 °F 26% 29.88 in 10.0 mi Variable 6.9 mph - N/A   Clear
2:56 PM 66.0 °F - 30.0 °F 26% 29.88 in 10.0 mi WNW 10.4 mph - N/A   Clear
3:56 PM 66.0 °F - 28.0 °F 24% 29.87 in 10.0 mi WNW 4.6 mph - N/A   Clear
4:56 PM 60.1 °F - 30.0 °F 32% 29.89 in 10.0 mi NW 5.8 mph - N/A   Clear
5:56 PM 53.1 °F - 28.9 °F 40% 29.92 in 7.0 mi NNW 8.1 mph - N/A   Clear
6:56 PM 51.1 °F - 28.0 °F 41% 29.95 in 10.0 mi NW 6.9 mph - N/A   Clear
7:56 PM 48.0 °F - 28.0 °F 46% 29.97 in 10.0 mi NNW 10.4 mph - N/A   Clear
9:56 PM 48.0 °F - 28.0 °F 46% 30.01 in 10.0 mi NNE 6.9 mph - N/A   Clear
10:56 PM 46.0 °F 40.2 °F 28.0 °F 50% 30.04 in 10.0 mi North 12.7 mph - N/A   Clear
11:56 PM 50.0 °F - 30.9 °F 48% 30.04 in 10.0 mi North 24.2 mph - N/A   Clear